SCP
0 0 0 0 0 0 0 0 0 0 0 0 0 0 0 0 0 0 0 0 0 0 0 0 0 0 0 0 0 0 0 0 0 0 0 0 0 0 0 0 -0 0 0 0 0 0 0 0 0 0 0 0 0 0
0 0 0 0 0 0 0 0 0 0 0 0 0 0 0 0 0 0 0 0 0 0 0 0 0 -0 -0 0 0 0 0 0 0 0 0 0 0 0 0 -0 0 0 0 0 0 0 -0 0 0 0 0 0 0 -0
0 0 0 0 0 0 0 0 0 0 0 0 0 0 0 0 0 0 0 0 0 0 0 0 0 0 0 0 0 0 0 0 0 0 0 0 0 0 0 -0 0 -0 0 0 0 0 0 0 0 0 0 0 -0 -0
0 0 0 0 0 0 0 0 0 0 0 0 0 0 0 0 0 0 0 0 0 0 0 0 0 0 0 0 0 0 0 0 -0 -0 0 0 0 0 0 0 0 -0 0 0 0 0 0 0 0 0 0 -0 -0 -0
0 0 0 0 0 0 0 0 0 0 0 0 0 0 0 0 0 0 0 0 0 0 0 0 0 0 0 0 0 0 0 0 -0 -0 0 0 0 0 0 0 -0 0 0 0 0 0 0 0 0 0 -0 -0 -0 -0
0 0 0 0 0 0 0 0 0 0 0 0 0 0 0 0 0 0 0 0 0 0 0 0 0 0 -0 0 0 0 0 0 0 0 0 0 0 0 0 0 0 0 0 0 0 0 0 0 0 0 -0 -0 -0 -0
0 0 0 0 0 0 0 0 0 0 0 0 0 0 0 0 0 0 0 0 0 0 0 0 0 0 0 0 0 0 0 0 0 0 0 0 0 0 0 0 -0 -0 -0 0 0 0 0 0 0 0 -0 -0 -0 0
0 0 0 0 0 0 0 0 0 0 0 0 0 0 0 0 0 0 0 0 0 0 0 0 0 0 0 0 0 0 0 0 0 0 0 0 0 0 0 -0 0 0 0 0 0 0 0 0 -0 0 -0 -0 -0 0
0 0 0 0 0 0 0 0 0 0 0 0 0 0 0 0 0 0 0 0 0 0 0 0 0 0 0 0 0 0 0 0 0 0 0 0 0 0 0 0 0 0 0 0 0 0 -0 -0 0 -0 -0 -0 0 0
0 0 0 0 0 0 0 0 0 0 0 0 0 0 0 0 0 0 0 0 0 0 0 0 0 0 0 -0 -0 0 0 0 0 0 0 0 0 -0 0 -0 0 0 0 0 0 -0 -0 -0 0 -0 -0 0 0 0
0 0 0 0 0 0 0 0 0 0 0 0 0 0 0 0 0 0 0 0 0 0 0 0 0 0 0 0 0 0 -0 0 0 0 0 0 0 -0 0 0 0 0 0 0 0 -0 -0 -0 0 -0 0 0 0 0
0 0 0 0 0 0 0 0 0 0 0 0 0 0 0 0 0 0 0 0 0 0 0 0 0 0 0 0 0 0 0 0 -0 0 0 0 -0 -0 0 0 0 0 0 0 0 -0 -0 -0 -0 -0 0 0 0 0
0 0 0 0 0 0 0 0 0 0 0 0 0 0 0 0 0 0 0 0 0 -0 -0 0 -0 0 0 0 0 0 0 0 -0 -0 0 0 0 0 0 0 -0 0 0 0 0 -0 -0 -0 -0 -0 -0 0 0 0
0 0 0 0 0 0 0 0 0 0 0 0 0 0 0 0 0 0 0 0 0 -0 -0 -0 -0 0 0 0 0 0 -0 -0 0 -0 0 0 0 0 0 0 0 0 0 0 0 0 -0 -0 -0 -0 -0 -0 0 0
0 0 0 0 0 0 0 0 -0 0 0 0 0 0 0 0 0 -0 0 0 0 0 0 -0 0 0 0 -0 -0 -0 0 0 0 0 0 0 0 0 0 0 -0 -0 0 0 0 -0 0 -0 0 -0 -0 -0 0 0
0 0 0 0 0 0 0 -0 0 0 0 0 0 0 0 0 0 0 0 0 -0 0 0 0 0 -0 -0 -0 0 -0 0 0 0 0 0 0 0 0 0 0 0 -0 0 0 -0 0 0 0 0 0 -0 -0 -0 0
0 0 0 0 0 -0 -0 0 0 0 0 0 0 0 0 0 0 0 0 -0 -0 -0 -0 0 0 0 0 -0 -0 0 0 0 0 0 0 -0 -0 -0 -0 -0 0 0 0 -0 0 0 0 0 0 0 0 -0 -0 -0
0 0 0 0 0 0 0 0 0 0 0 -0 0 0 0 0 -0 0 0 0 -0 0 0 0 -0 0 0 0 0 0 0 0 0 0 0 -0 -0 -0 -0 -0 0 0 0 0 -0 0 0 0 0 0 0 0 -0 -0
0 0 0 0 0 0 0 0 0 0 0 -0 0 0 -0 0 0 0 -0 -0 0 0 -0 -0 0 0 0 0 -0 0 0 0 0 0 0 0 -0 -0 -0 -0 0 0 0 0 -0 -0 0 0 0 -0 0 0 0 -0
0 0 0 0 0 0 0 0 0 0 0 0 -0 -0 -0 -0 0 -0 -0 -0 -0 0 0 0 0 -0 0 0 0 -0 -0 0 0 0 0 0 -0 -0 -0 -0 -0 0 0 0 0 0 -0 -0 0 0 0 0 -0 -0
0 0 0 0 0 0 0 0 0 0 0 -0 -0 -0 0 0 0 -0 0 0 -0 0 0 -0 0 0 0 -0 -0 -0 -0 0 0 0 0 0 -0 -0 -0 0 -0 -0 0 0 0 -0 0 0 -0 -0 -0 0 0 -0
0 0 0 0 0 0 0 0 0 0 0 -0 -0 -0 0 0 0 0 -0 -0 -0 -0 -0 0 0 0 0 0 -0 -0 0 0 0 0 0 0 0 0 -0 -0 0 0 -0 -0 -0 0 0 0 -0 -0 -0 -0 0 -0
0 0 0 0 0 0 0 0 0 0 0 0 -0 -0 0 0 0 0 0 0 0 0 0 0 0 0 0 0 0 0 0 0 0 0 0 0 0 0 0 -0 -0 0 -0 -0 -0 0 0 0 0 0 0 0 0 -0
0 0 0 0 0 0 0 0 0 0 0 0 0 -0 -0 0 0 0 0 0 0 0 0 -0 0 0 0 0 0 0 0 0 0 0 0 0 0 0 0 0 0 0 0 -0 0 0 0 0 0 0 -0 0 -0 0
0 0 0 0 0 0 0 0 0 0 0 0 0 0 0 0 0 0 0 0 0 -0 -0 0 0 0 0 0 0 0 0 0 0 0 0 0 0 0 0 0 0 0 0 -0 0 0 0 0 -0 -0 0 0 0 -0
0 0 0 0 0 0 0 0 0 0 0 0 0 0 0 0 0 0 0 0 0 0 0 0 -0 -0 -0 -0 0 0 0 0 0 0 0 0 0 0 0 0 0 0 0 0 0 0 0 0 -0 -0 -0 0 0 0
0 0 0 0 0 0 0 0 0 0 0 0 0 0 0 0 0 0 0 0 0 0 0 0 0 -0 -0 -0 -0 -0 0 0 0 0 0 0 0 0 0 0 0 0 0 0 0 0 0 0 0 -0 0 0 0 0
0 0 0 0 0 0 0 0 0 0 0 0 0 0 0 0 0 0 0 0 0 0 0 0 0 0 -0 -0 -0 -0 -0 0 0 0 0 0 0 0 0 0 0 0 0 0 0 0 0 0 0 0 0 0 0 0
0 0 0 0 0 0 0 0 0 0 0 0 0 0 0 0 0 0 0 0 0 0 0 0 0 0 0 0 0 0 0 0 0 0 0 0 0 0 0 0 0 0 0 0 0 0 0 0 0 0 0 0 0 0
0 0 0 0 0 0 0 0 0 0 0 0 0 0 0 0 0 0 0 0 0 0 0 0 0 0 0 0 0 0 0 0 0 0 0 0 0 0 0 0 0 0 0 0 0 0 0 0 0 0 0 0 0 0
0 0 0 0 0 0 0 0 0 0 0 0 0 0 0 0 0 0 0 0 0 0 0 0 0 0 0 0 0 0 0 0 0 0 0 0 0 0 0 0 0 0 0 0 0 0 0 0 0 0 0 0 0 0
0 0 0 0 0 0 0 0 0 0 0 0 0 0 0 0 0 0 0 0 0 0 0 0 0 0 0 0 0 0 0 0 0 0 0 0 0 0 0 0 0 0 0 0 0 0 0 0 0 0 0 0 0 0
0 0 0 0 0 0 0 0 0 0 0 0 0 0 0 0 0 0 0 0 0 0 0 0 0 0 0 0 0 0 0 0 -0 -0 -0 -0 0 0 0 0 0 0 0 0 0 0 0 0 0 0 0 0 0 0
Wind_Speed_500mb
39 40 40 41 40 39 45 46 48 51 48 46 42 41 39 36 31 23 21 20 30 43 69 67 49 47 41 27 15 30 26 7 17 6 7 7 10 12 18 22 23 10 9 9 6 9 6 11 8 4 10 35 39 48
40 39 41 39 38 40 45 46 47 50 49 49 45 43 41 37 31 26 31 19 26 37 54 67 70 70 70 64 53 20 18 18 11 7 4 7 11 9 22 11 22 9 9 6 9 8 28 31 1 13 26 29 41 51
40 40 41 40 39 39 42 47 48 51 50 50 48 46 43 36 27 25 32 31 31 46 68 45 45 35 34 43 42 36 32 23 17 13 8 3 9 14 12 17 27 25 34 18 24 15 13 19 2 10 22 37 53 53
41 42 40 40 40 44 43 50 50 52 52 51 48 47 44 33 27 29 34 29 29 26 18 16 24 33 16 28 41 51 51 36 34 29 10 5 7 17 12 24 30 26 12 18 32 23 32 4 11 19 39 47 54 43
42 42 40 41 39 43 46 51 51 53 52 51 48 45 42 36 34 40 44 40 32 31 16 43 77 18 21 32 48 40 48 43 43 8 7 6 13 15 17 17 19 7 6 13 19 22 15 9 13 32 43 54 50 44
44 44 40 41 37 41 47 53 53 54 54 51 47 43 42 39 35 27 12 7 22 24 12 8 31 44 17 27 40 48 56 38 26 8 7 13 35 15 8 14 29 13 22 58 20 34 22 12 18 29 47 53 47 48
45 43 41 39 39 42 48 53 54 55 53 49 45 43 43 38 30 19 7 9 11 22 8 13 14 3 14 20 21 22 36 20 18 8 13 18 38 31 6 13 50 44 41 27 31 27 29 18 14 42 44 52 47 51
45 42 37 40 44 45 50 53 54 53 49 46 43 40 38 28 23 27 20 27 25 12 11 8 11 28 22 26 13 18 15 25 17 9 9 12 24 17 9 40 42 10 30 26 31 33 29 26 31 44 43 43 47 52
43 38 36 42 45 47 50 51 50 49 45 43 37 29 20 7 8 7 11 15 31 23 8 9 8 11 2 5 7 10 17 8 13 9 9 10 9 12 27 18 7 14 18 26 27 32 33 30 31 42 36 43 45 52
38 34 38 42 44 46 47 46 45 43 39 26 20 9 9 7 7 17 10 7 14 13 13 11 30 26 42 39 10 9 15 7 7 15 13 10 14 46 13 31 9 4 19 25 28 34 35 34 40 43 34 37 41 43
34 35 39 42 41 43 40 39 35 34 23 19 11 9 13 17 14 14 9 13 13 8 14 16 30 23 22 19 16 12 6 6 6 8 8 7 2 21 3 12 14 13 19 23 24 27 25 27 32 34 31 30 41 48
36 37 38 38 38 35 32 29 28 23 15 18 18 25 15 6 11 9 6 7 11 9 7 16 17 17 8 8 8 9 7 6 9 9 8 4 1 26 11 20 8 13 21 20 25 26 25 31 34 29 27 34 42 46
36 36 35 32 30 28 25 24 23 23 20 3 5 5 5 6 4 8 9 2 9 22 25 37 22 5 6 3 11 8 7 9 22 6 5 9 23 24 18 12 1 19 17 18 25 25 27 31 34 34 35 33 36 45
36 33 28 25 24 23 19 19 19 14 8 7 5 4 7 7 6 4 11 17 27 17 28 22 23 6 1 4 7 8 9 7 6 5 7 10 23 24 9 15 5 11 17 20 27 27 25 29 36 39 36 32 29 35
33 24 23 22 19 14 14 14 11 7 5 6 7 5 5 14 28 35 33 26 29 37 34 19 24 10 1 5 3 7 8 7 3 4 10 11 23 12 8 15 5 3 14 20 25 25 26 25 28 32 34 40 35 30
19 22 23 13 8 9 11 4 7 1 2 5 7 13 20 24 29 33 40 32 34 40 46 22 7 6 6 4 5 8 8 6 10 14 33 29 16 11 9 12 18 8 13 19 22 22 25 24 25 28 30 44 38 32
20 16 16 8 3 3 8 12 2 3 4 6 10 17 21 24 27 24 28 36 35 25 12 9 10 7 9 6 5 9 9 10 26 46 55 45 44 32 5 22 10 13 15 14 17 17 17 19 19 21 23 29 53 45
14 16 18 8 8 6 6 3 3 5 9 16 16 16 20 21 26 28 29 25 27 18 16 4 8 4 6 9 6 5 21 42 49 42 40 55 61 48 12 4 13 17 12 10 13 14 16 21 25 26 31 24 36 43
28 22 10 11 13 15 10 8 5 7 8 11 13 16 21 23 22 24 28 24 24 25 12 10 11 8 8 12 21 40 47 45 46 40 44 52 44 47 41 22 5 14 15 10 9 8 15 19 20 22 23 24 28 29
26 23 12 10 21 7 7 8 8 8 11 12 11 14 19 22 26 28 23 22 24 12 18 9 7 22 23 37 41 44 45 49 55 49 51 53 47 54 48 25 13 5 10 13 15 11 12 15 15 17 21 24 27 30
19 12 12 21 6 5 6 6 12 7 9 12 14 18 5 15 22 23 26 12 22 12 8 12 33 34 32 32 38 38 41 45 47 40 44 50 46 52 42 42 25 10 11 17 11 13 14 13 13 12 15 21 28 36
16 11 12 10 8 8 8 11 9 10 7 10 16 13 8 2 9 15 22 24 12 12 12 23 31 34 35 36 38 39 43 40 31 32 41 49 53 45 48 41 40 15 11 27 15 18 23 18 17 15 16 22 21 23
15 21 9 10 8 8 10 7 10 4 5 7 10 9 5 6 8 9 8 9 7 15 19 24 27 25 27 30 32 35 44 45 43 43 49 49 46 38 34 34 38 31 32 43 18 14 26 26 21 20 23 20 23 23
21 9 9 12 15 8 6 11 8 4 8 13 4 4 4 2 8 4 7 8 13 17 22 26 26 30 27 33 39 41 49 51 42 39 47 54 51 47 35 31 34 20 30 30 16 9 18 18 23 18 20 22 22 22
6 8 8 9 12 9 8 8 9 9 6 1 5 4 4 6 5 5 5 6 13 17 23 25 25 27 28 34 40 38 41 48 52 41 42 50 52 49 46 39 39 32 34 45 20 18 30 8 21 22 22 22 23 24
8 13 15 21 16 10 11 8 10 12 5 5 8 7 6 4 5 6 6 9 10 13 19 22 25 27 27 33 37 40 44 44 43 37 38 41 45 54 56 58 54 44 45 31 24 35 11 28 13 27 25 25 25 23
9 14 17 18 18 18 9 16 11 5 8 8 6 5 5 5 5 7 7 7 7 10 15 17 20 23 27 28 30 32 34 35 37 33 27 38 40 47 43 52 55 51 39 33 24 14 19 18 40 28 34 30 29 26
17 16 22 22 16 16 9 6 7 8 9 9 4 2 5 4 5 8 5 5 7 9 13 15 18 18 21 23 25 29 33 33 31 29 18 22 32 40 42 41 43 43 41 26 24 19 13 12 32 24 27 37 34 32
17 18 22 24 22 11 14 13 12 12 5 4 4 5 8 9 9 11 7 2 4 6 10 13 17 17 18 18 21 24 31 36 42 48 48 50 55 53 54 56 58 53 50 46 24 19 13 12 19 42 32 26 38 34
19 28 18 21 16 14 20 22 13 9 8 11 20 25 23 19 15 10 7 6 6 7 9 10 13 17 19 21 22 23 26 31 37 38 38 42 46 44 45 49 51 52 50 47 47 28 13 9 8 24 34 25 44 43
23 32 19 19 23 29 25 27 21 14 14 13 13 24 23 23 17 13 10 7 5 5 8 11 11 15 17 19 21 22 22 25 31 35 37 30 36 39 39 39 43 43 44 44 40 44 41 20 15 13 19 24 33 44
33 32 27 17 23 13 19 28 27 21 23 23 14 23 24 19 11 7 5 6 7 7 10 10 9 11 15 16 16 17 21 20 28 44 41 38 38 39 38 33 38 40 39 40 39 34 36 38 37 31 24 24 20 12
25 29 28 29 22 22 25 13 16 15 17 17 14 20 12 9 9 9 6 7 7 9 9 8 8 10 10 16 18 17 18 19 31 39 40 36 36 36 39 37 34 37 38 38 38 38 35 31 31 31 32 29 26 21
Wind_Direction_500mb
291 297 304 307 312 319 328 329 330 333 333 333 332 328 327 323 318 310 281 265 266 271 281 279 281 287 288 278 257 286 321 11 293 278 295 334 320 332 309 332 304 289 296 296 291 278 291 236 5 160 273 290 292 293
287 293 297 301 306 313 325 328 327 330 329 329 328 325 323 319 317 307 296 295 275 268 263 284 283 275 262 261 265 253 261 314 283 301 5 314 315 294 309 293 317 284 308 245 217 254 312 330 276 287 287 311 314 309
283 288 293 299 301 307 319 327 324 326 326 325 326 323 320 318 315 302 291 291 290 286 295 274 280 290 274 238 237 232 244 238 243 285 320 265 272 308 299 299 299 302 318 288 289 267 341 322 325 323 316 316 309 303
279 285 290 295 298 304 309 323 321 323 323 322 322 322 319 313 300 296 290 280 272 280 285 296 314 296 269 252 221 225 239 245 257 302 272 266 263 274 284 296 295 300 350 303 292 351 333 156 353 349 314 318 315 303
275 280 284 293 297 303 309 316 319 320 320 318 319 318 317 313 302 294 289 272 250 245 290 301 305 292 302 235 223 220 228 242 259 249 240 246 271 277 282 291 273 115 230 287 309 334 313 357 330 326 318 325 316 310
272 276 280 289 295 302 309 313 317 318 318 317 317 317 314 312 305 319 334 145 236 246 272 293 297 296 297 220 220 238 223 222 240 224 236 246 260 274 267 272 286 184 271 275 14 346 22 4 314 327 325 323 317 314
268 273 279 287 295 302 309 311 316 316 317 319 317 314 308 302 284 241 260 307 235 245 261 285 267 258 231 201 208 213 212 203 211 220 225 250 269 266 251 261 277 313 308 352 8 3 355 24 350 336 322 328 327 335
266 271 280 286 293 302 309 312 315 316 320 318 316 310 304 296 284 277 300 241 251 248 259 268 277 283 218 205 223 186 170 198 210 229 244 244 267 218 254 253 270 318 290 357 9 355 21 10 350 335 327 335 340 345
263 270 277 284 293 302 308 312 315 318 321 323 319 303 286 244 237 281 274 281 231 216 261 244 273 299 308 329 279 184 180 203 215 214 227 240 234 226 236 275 319 7 343 22 4 2 0 4 352 339 340 349 348 350
258 266 275 285 293 302 309 314 318 322 329 347 345 259 202 120 316 311 287 217 204 218 234 250 246 265 286 301 291 191 192 227 216 216 215 210 248 248 266 261 129 15 7 19 14 9 2 4 355 348 359 357 357 3
252 263 273 283 295 301 310 318 324 329 358 352 317 300 305 299 304 241 243 201 177 235 224 243 235 244 266 257 284 273 269 239 259 160 230 231 157 343 181 109 100 42 26 34 41 19 24 13 6 358 360 4 13 14
249 262 273 284 292 300 314 319 325 336 316 305 303 303 318 297 231 271 255 228 198 248 181 301 294 222 257 248 254 261 259 270 266 210 229 292 216 215 167 78 74 51 47 39 39 24 26 25 19 8 17 19 22 19
248 260 269 280 291 302 308 318 331 334 338 64 206 273 278 266 308 245 257 327 347 356 342 338 330 314 352 292 275 267 253 255 311 276 279 65 52 85 102 159 220 52 55 42 46 36 28 27 23 24 28 20 18 25
247 255 267 280 287 292 305 323 334 353 46 276 251 260 250 217 298 342 297 306 332 318 330 330 315 323 351 241 309 268 242 288 258 254 21 349 300 88 106 98 60 34 36 51 46 49 40 31 32 29 25 33 31 31
243 253 265 267 273 290 312 334 346 70 310 280 282 248 262 333 310 319 320 329 321 318 318 310 276 225 233 277 255 308 268 236 280 358 9 21 81 112 117 93 48 66 56 52 49 48 51 37 45 49 36 32 38 45
230 251 256 245 270 304 326 15 17 325 256 262 253 268 294 325 329 331 326 319 323 329 328 324 287 252 218 279 247 228 290 26 5 356 339 360 32 143 101 111 121 56 62 60 49 50 59 55 45 44 50 43 50 53
217 215 249 242 272 15 96 108 183 188 282 270 247 270 298 316 325 326 317 318 310 318 324 315 329 14 288 243 343 26 341 301 356 347 331 360 358 353 271 146 116 91 82 68 55 45 61 57 61 53 57 51 37 45
173 231 248 230 170 97 179 174 232 226 241 245 269 325 336 322 316 316 304 308 303 311 330 294 236 309 345 357 340 300 302 358 359 340 343 354 348 356 342 291 141 121 103 88 53 47 52 58 54 49 50 45 39 40
169 223 215 185 165 150 192 209 210 275 278 305 314 334 316 317 319 329 350 338 309 303 268 13 31 12 349 337 336 345 357 359 346 345 358 5 355 1 355 265 160 147 137 116 85 98 66 62 59 61 63 56 60 46
190 212 200 165 151 171 193 196 192 234 267 333 301 317 322 17 356 358 353 360 332 32 35 39 14 321 326 329 349 351 350 353 356 352 359 349 349 358 347 358 254 165 154 130 138 129 111 90 58 65 75 81 77 74
178 176 155 144 160 208 243 222 229 234 312 306 302 303 335 65 50 34 25 23 59 43 28 345 345 347 1 353 355 354 352 355 347 356 350 348 342 339 355 2 359 344 307 193 174 171 142 113 103 91 84 80 85 90
193 185 155 168 194 202 249 220 272 316 254 266 288 288 301 85 62 55 45 43 55 39 24 355 351 356 360 3 360 359 355 357 357 357 359 354 356 352 346 352 349 315 288 317 207 185 162 142 134 128 112 97 88 90
163 156 164 184 199 212 255 230 238 238 296 301 292 293 67 51 94 137 81 67 85 31 10 1 356 356 359 1 4 7 3 7 9 9 4 357 358 358 357 349 359 354 322 304 273 258 149 147 149 143 136 130 120 108
163 174 192 197 196 226 210 214 188 234 240 244 269 275 63 69 127 136 95 75 27 10 2 0 2 2 3 4 6 4 2 7 7 12 7 3 5 8 6 9 27 24 355 353 271 227 152 173 164 160 152 141 139 137
192 201 185 222 209 209 220 191 181 224 249 242 246 228 193 157 158 76 76 64 12 9 360 3 2 2 0 358 1 359 359 4 4 2 8 5 9 12 16 17 25 27 24 58 51 317 243 294 194 181 176 170 161 149
213 211 196 197 187 206 187 189 195 214 225 247 230 201 134 120 95 108 79 20 4 1 2 3 2 3 4 2 0 0 358 358 2 9 8 6 11 14 12 11 8 5 7 9 26 10 277 247 223 200 193 181 170 157
220 219 202 218 195 184 197 213 233 172 204 232 186 213 127 137 124 97 115 22 10 358 359 3 360 0 356 1 5 5 4 5 3 358 8 8 8 9 14 12 9 4 358 360 354 6 10 243 266 225 195 188 184 177
232 221 197 187 189 193 220 191 219 220 210 211 250 63 98 93 93 121 151 350 9 10 9 10 9 6 5 5 7 10 8 10 11 18 27 21 14 6 18 20 13 8 9 4 1 347 321 253 248 234 208 188 184 186
219 212 204 175 189 165 205 211 226 209 176 211 184 104 99 99 126 150 122 79 15 9 8 10 11 10 11 13 12 17 14 12 14 17 18 10 5 8 5 10 6 4 8 10 358 6 345 290 234 222 217 193 196 189
213 197 193 190 189 209 207 204 207 137 121 97 109 109 95 105 110 108 110 70 43 21 7 8 11 14 15 15 16 19 20 18 22 17 10 5 357 356 359 4 1 359 0 7 15 10 354 322 214 194 202 247 195 187
204 191 183 208 210 221 206 175 161 162 163 148 109 141 136 135 121 93 80 64 58 32 36 33 26 26 18 18 17 15 17 8 13 14 15 10 3 5 4 6 2 5 6 3 16 26 33 29 4 15 170 184 188 188
210 198 194 207 226 210 172 191 168 166 164 152 131 141 139 151 131 126 49 79 83 55 40 40 25 14 18 15 15 12 14 1 9 3 5 12 14 17 15 16 8 12 18 19 20 28 34 42 47 44 35 50 64 157
218 206 209 217 232 228 202 200 160 153 149 138 141 161 151 118 105 133 114 75 92 74 33 10 15 2 7 13 11 12 15 7 1 353 2 13 15 17 21 22 24 16 24 30 32 33 36 38 43 43 42 43 39 27
Wind_Speed_850mb
39 40 40 41 40 39 45 46 48 51 48 46 42 41 39 36 31 23 21 20 30 43 69 67 49 47 41 27 15 30 26 7 17 6 7 7 10 12 18 22 23 10 9 9 6 9 6 11 8 4 10 35 39 48
40 39 41 39 38 40 45 46 47 50 49 49 45 43 41 37 31 26 31 19 26 37 54 67 70 70 70 64 53 20 18 18 11 7 4 7 11 9 22 11 22 9 9 6 9 8 28 31 1 13 26 29 41 51
40 40 41 40 39 39 42 47 48 51 50 50 48 46 43 36 27 25 32 31 31 46 68 45 45 35 34 43 42 36 32 23 17 13 8 3 9 14 12 17 27 25 34 18 24 15 13 19 2 10 22 37 53 53
41 42 40 40 40 44 43 50 50 52 52 51 48 47 44 33 27 29 34 29 29 26 18 16 24 33 16 28 41 51 51 36 34 29 10 5 7 17 12 24 30 26 12 18 32 23 32 4 11 19 39 47 54 43
42 42 40 41 39 43 46 51 51 53 52 51 48 45 42 36 34 40 44 40 32 31 16 43 77 18 21 32 48 40 48 43 43 8 7 6 13 15 17 17 19 7 6 13 19 22 15 9 13 32 43 54 50 44
44 44 40 41 37 41 47 53 53 54 54 51 47 43 42 39 35 27 12 7 22 24 12 8 31 44 17 27 40 48 56 38 26 8 7 13 35 15 8 14 29 13 22 58 20 34 22 12 18 29 47 53 47 48
45 43 41 39 39 42 48 53 54 55 53 49 45 43 43 38 30 19 7 9 11 22 8 13 14 3 14 20 21 22 36 20 18 8 13 18 38 31 6 13 50 44 41 27 31 27 29 18 14 42 44 52 47 51
45 42 37 40 44 45 50 53 54 53 49 46 43 40 38 28 23 27 20 27 25 12 11 8 11 28 22 26 13 18 15 25 17 9 9 12 24 17 9 40 42 10 30 26 31 33 29 26 31 44 43 43 47 52
43 38 36 42 45 47 50 51 50 49 45 43 37 29 20 7 8 7 11 15 31 23 8 9 8 11 2 5 7 10 17 8 13 9 9 10 9 12 27 18 7 14 18 26 27 32 33 30 31 42 36 43 45 52
38 34 38 42 44 46 47 46 45 43 39 26 20 9 9 7 7 17 10 7 14 13 13 11 30 26 42 39 10 9 15 7 7 15 13 10 14 46 13 31 9 4 19 25 28 34 35 34 40 43 34 37 41 43
34 35 39 42 41 43 40 39 35 34 23 19 11 9 13 17 14 14 9 13 13 8 14 16 30 23 22 19 16 12 6 6 6 8 8 7 2 21 3 12 14 13 19 23 24 27 25 27 32 34 31 30 41 48
36 37 38 38 38 35 32 29 28 23 15 18 18 25 15 6 11 9 6 7 11 9 7 16 17 17 8 8 8 9 7 6 9 9 8 4 1 26 11 20 8 13 21 20 25 26 25 31 34 29 27 34 42 46
36 36 35 32 30 28 25 24 23 23 20 3 5 5 5 6 4 8 9 2 9 22 25 37 22 5 6 3 11 8 7 9 22 6 5 9 23 24 18 12 1 19 17 18 25 25 27 31 34 34 35 33 36 45
36 33 28 25 24 23 19 19 19 14 8 7 5 4 7 7 6 4 11 17 27 17 28 22 23 6 1 4 7 8 9 7 6 5 7 10 23 24 9 15 5 11 17 20 27 27 25 29 36 39 36 32 29 35
33 24 23 22 19 14 14 14 11 7 5 6 7 5 5 14 28 35 33 26 29 37 34 19 24 10 1 5 3 7 8 7 3 4 10 11 23 12 8 15 5 3 14 20 25 25 26 25 28 32 34 40 35 30
19 22 23 13 8 9 11 4 7 1 2 5 7 13 20 24 29 33 40 32 34 40 46 22 7 6 6 4 5 8 8 6 10 14 33 29 16 11 9 12 18 8 13 19 22 22 25 24 25 28 30 44 38 32
20 16 16 8 3 3 8 12 2 3 4 6 10 17 21 24 27 24 28 36 35 25 12 9 10 7 9 6 5 9 9 10 26 46 55 45 44 32 5 22 10 13 15 14 17 17 17 19 19 21 23 29 53 45
14 16 18 8 8 6 6 3 3 5 9 16 16 16 20 21 26 28 29 25 27 18 16 4 8 4 6 9 6 5 21 42 49 42 40 55 61 48 12 4 13 17 12 10 13 14 16 21 25 26 31 24 36 43
28 22 10 11 13 15 10 8 5 7 8 11 13 16 21 23 22 24 28 24 24 25 12 10 11 8 8 12 21 40 47 45 46 40 44 52 44 47 41 22 5 14 15 10 9 8 15 19 20 22 23 24 28 29
26 23 12 10 21 7 7 8 8 8 11 12 11 14 19 22 26 28 23 22 24 12 18 9 7 22 23 37 41 44 45 49 55 49 51 53 47 54 48 25 13 5 10 13 15 11 12 15 15 17 21 24 27 30
19 12 12 21 6 5 6 6 12 7 9 12 14 18 5 15 22 23 26 12 22 12 8 12 33 34 32 32 38 38 41 45 47 40 44 50 46 52 42 42 25 10 11 17 11 13 14 13 13 12 15 21 28 36
16 11 12 10 8 8 8 11 9 10 7 10 16 13 8 2 9 15 22 24 12 12 12 23 31 34 35 36 38 39 43 40 31 32 41 49 53 45 48 41 40 15 11 27 15 18 23 18 17 15 16 22 21 23
15 21 9 10 8 8 10 7 10 4 5 7 10 9 5 6 8 9 8 9 7 15 19 24 27 25 27 30 32 35 44 45 43 43 49 49 46 38 34 34 38 31 32 43 18 14 26 26 21 20 23 20 23 23
21 9 9 12 15 8 6 11 8 4 8 13 4 4 4 2 8 4 7 8 13 17 22 26 26 30 27 33 39 41 49 51 42 39 47 54 51 47 35 31 34 20 30 30 16 9 18 18 23 18 20 22 22 22
6 8 8 9 12 9 8 8 9 9 6 1 5 4 4 6 5 5 5 6 13 17 23 25 25 27 28 34 40 38 41 48 52 41 42 50 52 49 46 39 39 32 34 45 20 18 30 8 21 22 22 22 23 24
8 13 15 21 16 10 11 8 10 12 5 5 8 7 6 4 5 6 6 9 10 13 19 22 25 27 27 33 37 40 44 44 43 37 38 41 45 54 56 58 54 44 45 31 24 35 11 28 13 27 25 25 25 23
9 14 17 18 18 18 9 16 11 5 8 8 6 5 5 5 5 7 7 7 7 10 15 17 20 23 27 28 30 32 34 35 37 33 27 38 40 47 43 52 55 51 39 33 24 14 19 18 40 28 34 30 29 26
17 16 22 22 16 16 9 6 7 8 9 9 4 2 5 4 5 8 5 5 7 9 13 15 18 18 21 23 25 29 33 33 31 29 18 22 32 40 42 41 43 43 41 26 24 19 13 12 32 24 27 37 34 32
17 18 22 24 22 11 14 13 12 12 5 4 4 5 8 9 9 11 7 2 4 6 10 13 17 17 18 18 21 24 31 36 42 48 48 50 55 53 54 56 58 53 50 46 24 19 13 12 19 42 32 26 38 34
19 28 18 21 16 14 20 22 13 9 8 11 20 25 23 19 15 10 7 6 6 7 9 10 13 17 19 21 22 23 26 31 37 38 38 42 46 44 45 49 51 52 50 47 47 28 13 9 8 24 34 25 44 43
23 32 19 19 23 29 25 27 21 14 14 13 13 24 23 23 17 13 10 7 5 5 8 11 11 15 17 19 21 22 22 25 31 35 37 30 36 39 39 39 43 43 44 44 40 44 41 20 15 13 19 24 33 44
33 32 27 17 23 13 19 28 27 21 23 23 14 23 24 19 11 7 5 6 7 7 10 10 9 11 15 16 16 17 21 20 28 44 41 38 38 39 38 33 38 40 39 40 39 34 36 38 37 31 24 24 20 12
25 29 28 29 22 22 25 13 16 15 17 17 14 20 12 9 9 9 6 7 7 9 9 8 8 10 10 16 18 17 18 19 31 39 40 36 36 36 39 37 34 37 38 38 38 38 35 31 31 31 32 29 26 21
Wind_Direction_850mb
291 297 304 307 312 319 328 329 330 333 333 333 332 328 327 323 318 310 281 265 266 271 281 279 281 287 288 278 257 286 321 11 293 278 295 334 320 332 309 332 304 289 296 296 291 278 291 236 5 160 273 290 292 293
287 293 297 301 306 313 325 328 327 330 329 329 328 325 323 319 317 307 296 295 275 268 263 284 283 275 262 261 265 253 261 314 283 301 5 314 315 294 309 293 317 284 308 245 217 254 312 330 276 287 287 311 314 309
283 288 293 299 301 307 319 327 324 326 326 325 326 323 320 318 315 302 291 291 290 286 295 274 280 290 274 238 237 232 244 238 243 285 320 265 272 308 299 299 299 302 318 288 289 267 341 322 325 323 316 316 309 303
279 285 290 295 298 304 309 323 321 323 323 322 322 322 319 313 300 296 290 280 272 280 285 296 314 296 269 252 221 225 239 245 257 302 272 266 263 274 284 296 295 300 350 303 292 351 333 156 353 349 314 318 315 303
275 280 284 293 297 303 309 316 319 320 320 318 319 318 317 313 302 294 289 272 250 245 290 301 305 292 302 235 223 220 228 242 259 249 240 246 271 277 282 291 273 115 230 287 309 334 313 357 330 326 318 325 316 310
272 276 280 289 295 302 309 313 317 318 318 317 317 317 314 312 305 319 334 145 236 246 272 293 297 296 297 220 220 238 223 222 240 224 236 246 260 274 267 272 286 184 271 275 14 346 22 4 314 327 325 323 317 314
268 273 279 287 295 302 309 311 316 316 317 319 317 314 308 302 284 241 260 307 235 245 261 285 267 258 231 201 208 213 212 203 211 220 225 250 269 266 251 261 277 313 308 352 8 3 355 24 350 336 322 328 327 335
266 271 280 286 293 302 309 312 315 316 320 318 316 310 304 296 284 277 300 241 251 248 259 268 277 283 218 205 223 186 170 198 210 229 244 244 267 218 254 253 270 318 290 357 9 355 21 10 350 335 327 335 340 345
263 270 277 284 293 302 308 312 315 318 321 323 319 303 286 244 237 281 274 281 231 216 261 244 273 299 308 329 279 184 180 203 215 214 227 240 234 226 236 275 319 7 343 22 4 2 0 4 352 339 340 349 348 350
258 266 275 285 293 302 309 314 318 322 329 347 345 259 202 120 316 311 287 217 204 218 234 250 246 265 286 301 291 191 192 227 216 216 215 210 248 248 266 261 129 15 7 19 14 9 2 4 355 348 359 357 357 3
252 263 273 283 295 301 310 318 324 329 358 352 317 300 305 299 304 241 243 201 177 235 224 243 235 244 266 257 284 273 269 239 259 160 230 231 157 343 181 109 100 42 26 34 41 19 24 13 6 358 360 4 13 14
249 262 273 284 292 300 314 319 325 336 316 305 303 303 318 297 231 271 255 228 198 248 181 301 294 222 257 248 254 261 259 270 266 210 229 292 216 215 167 78 74 51 47 39 39 24 26 25 19 8 17 19 22 19
248 260 269 280 291 302 308 318 331 334 338 64 206 273 278 266 308 245 257 327 347 356 342 338 330 314 352 292 275 267 253 255 311 276 279 65 52 85 102 159 220 52 55 42 46 36 28 27 23 24 28 20 18 25
247 255 267 280 287 292 305 323 334 353 46 276 251 260 250 217 298 342 297 306 332 318 330 330 315 323 351 241 309 268 242 288 258 254 21 349 300 88 106 98 60 34 36 51 46 49 40 31 32 29 25 33 31 31
243 253 265 267 273 290 312 334 346 70 310 280 282 248 262 333 310 319 320 329 321 318 318 310 276 225 233 277 255 308 268 236 280 358 9 21 81 112 117 93 48 66 56 52 49 48 51 37 45 49 36 32 38 45
230 251 256 245 270 304 326 15 17 325 256 262 253 268 294 325 329 331 326 319 323 329 328 324 287 252 218 279 247 228 290 26 5 356 339 360 32 143 101 111 121 56 62 60 49 50 59 55 45 44 50 43 50 53
217 215 249 242 272 15 96 108 183 188 282 270 247 270 298 316 325 326 317 318 310 318 324 315 329 14 288 243 343 26 341 301 356 347 331 360 358 353 271 146 116 91 82 68 55 45 61 57 61 53 57 51 37 45
173 231 248 230 170 97 179 174 232 226 241 245 269 325 336 322 316 316 304 308 303 311 330 294 236 309 345 357 340 300 302 358 359 340 343 354 348 356 342 291 141 121 103 88 53 47 52 58 54 49 50 45 39 40
169 223 215 185 165 150 192 209 210 275 278 305 314 334 316 317 319 329 350 338 309 303 268 13 31 12 349 337 336 345 357 359 346 345 358 5 355 1 355 265 160 147 137 116 85 98 66 62 59 61 63 56 60 46
190 212 200 165 151 171 193 196 192 234 267 333 301 317 322 17 356 358 353 360 332 32 35 39 14 321 326 329 349 351 350 353 356 352 359 349 349 358 347 358 254 165 154 130 138 129 111 90 58 65 75 81 77 74
178 176 155 144 160 208 243 222 229 234 312 306 302 303 335 65 50 34 25 23 59 43 28 345 345 347 1 353 355 354 352 355 347 356 350 348 342 339 355 2 359 344 307 193 174 171 142 113 103 91 84 80 85 90
193 185 155 168 194 202 249 220 272 316 254 266 288 288 301 85 62 55 45 43 55 39 24 355 351 356 360 3 360 359 355 357 357 357 359 354 356 352 346 352 349 315 288 317 207 185 162 142 134 128 112 97 88 90
163 156 164 184 199 212 255 230 238 238 296 301 292 293 67 51 94 137 81 67 85 31 10 1 356 356 359 1 4 7 3 7 9 9 4 357 358 358 357 349 359 354 322 304 273 258 149 147 149 143 136 130 120 108
163 174 192 197 196 226 210 214 188 234 240 244 269 275 63 69 127 136 95 75 27 10 2 0 2 2 3 4 6 4 2 7 7 12 7 3 5 8 6 9 27 24 355 353 271 227 152 173 164 160 152 141 139 137
192 201 185 222 209 209 220 191 181 224 249 242 246 228 193 157 158 76 76 64 12 9 360 3 2 2 0 358 1 359 359 4 4 2 8 5 9 12 16 17 25 27 24 58 51 317 243 294 194 181 176 170 161 149
213 211 196 197 187 206 187 189 195 214 225 247 230 201 134 120 95 108 79 20 4 1 2 3 2 3 4 2 0 0 358 358 2 9 8 6 11 14 12 11 8 5 7 9 26 10 277 247 223 200 193 181 170 157
220 219 202 218 195 184 197 213 233 172 204 232 186 213 127 137 124 97 115 22 10 358 359 3 360 0 356 1 5 5 4 5 3 358 8 8 8 9 14 12 9 4 358 360 354 6 10 243 266 225 195 188 184 177
232 221 197 187 189 193 220 191 219 220 210 211 250 63 98 93 93 121 151 350 9 10 9 10 9 6 5 5 7 10 8 10 11 18 27 21 14 6 18 20 13 8 9 4 1 347 321 253 248 234 208 188 184 186
219 212 204 175 189 165 205 211 226 209 176 211 184 104 99 99 126 150 122 79 15 9 8 10 11 10 11 13 12 17 14 12 14 17 18 10 5 8 5 10 6 4 8 10 358 6 345 290 234 222 217 193 196 189
213 197 193 190 189 209 207 204 207 137 121 97 109 109 95 105 110 108 110 70 43 21 7 8 11 14 15 15 16 19 20 18 22 17 10 5 357 356 359 4 1 359 0 7 15 10 354 322 214 194 202 247 195 187
204 191 183 208 210 221 206 175 161 162 163 148 109 141 136 135 121 93 80 64 58 32 36 33 26 26 18 18 17 15 17 8 13 14 15 10 3 5 4 6 2 5 6 3 16 26 33 29 4 15 170 184 188 188
210 198 194 207 226 210 172 191 168 166 164 152 131 141 139 151 131 126 49 79 83 55 40 40 25 14 18 15 15 12 14 1 9 3 5 12 14 17 15 16 8 12 18 19 20 28 34 42 47 44 35 50 64 157
218 206 209 217 232 228 202 200 160 153 149 138 141 161 151 118 105 133 114 75 92 74 33 10 15 2 7 13 11 12 15 7 1 353 2 13 15 17 21 22 24 16 24 30 32 33 36 38 43 43 42 43 39 27